Air Resources Laboratory banner image
Air Resources Laboratory web site National Oceanic and Atmospheric Administration (NOAA)

tn roundup


Office: MEG

ASUS44 KMEG 200100
RWRTN
TENNESSEE HOURLY STATE WEATHER ROUNDUP
NATIONAL WEATHER SERVICE MEMPHIS TN
800 PM CDT SUN AUG 19 2018

TNZ002-004-019-021-049-052-054-088>092-200200-
WEST TENNESSEE

CITY           SKY/WX    TMP DP  RH WIND       PRES   REMARKS
MEMPHIS INTL   CLOUDY    83  75  77 S13       29.89R HX  90
NWS MEMPHIS      N/A     83 N/A N/A MISG        N/A
JACKSON        FAIR      82  76  81 S5        29.89R
DYERSBURG      FAIR      80  75  84 CALM      29.88R
$$

TNZ008-025-027-028-033-062-065-066-200200-
NORTH MIDDLE TENNESSEE

CITY           SKY/WX    TMP DP  RH WIND       PRES   REMARKS
NASHVILLE      MOCLDY    82  70  66 S3        29.92S
CLARKSVILLE    FAIR      79  68  69 CALM      29.91R
SMYRNA         CLOUDY    80  73  79 CALM      29.93S
CROSSVILLE     FAIR      73  71  93 CALM      30.02R
$$

TNZ061-075-076-078-094-096-097-200200-
SOUTH MIDDLE TENNESSEE

CITY           SKY/WX    TMP DP  RH WIND       PRES   REMARKS
$$

TNZ017-018-042-046-047-200200-
NORTHEAST TENNESSEE

CITY           SKY/WX    TMP DP  RH WIND       PRES   REMARKS
TRI CITIES     FAIR      74  72  93 NW3       29.99R
$$

TNZ012-013-036-069-073-074-200200-
CENTRAL EAST TENNESSEE

CITY           SKY/WX    TMP DP  RH WIND       PRES   REMARKS
KNOXVILLE      MOCLDY    78  73  84 SW6       29.96R
OAK RIDGE      MOCLDY    80  74  81 CALM      29.97R
$$

TNZ083-085-099-200200-
SOUTHEAST TENNESSEE

CITY           SKY/WX    TMP DP  RH WIND       PRES   REMARKS
CHATTANOOGA    MOCLDY    80  72  76 S3        29.96R
$$

SKY/WX REPORTED AS FAIR MEANS FEW OR NO CLOUDS BELOW
12 THOUSAND FEET.



ASUS44 KMEG 200110
RWRTN
TENNESSEE HOURLY STATE WEATHER ROUNDUP
NATIONAL WEATHER SERVICE MEMPHIS TN
800 PM CDT SUN AUG 19 2018

TNZ002-004-019-021-049-052-054-088>092-200200-
WEST TENNESSEE

CITY           SKY/WX    TMP DP  RH WIND       PRES   REMARKS
MEMPHIS INTL   CLOUDY    83  75  77 S13       29.89R HX  90
NWS MEMPHIS      N/A     83 N/A N/A MISG        N/A
JACKSON        FAIR      82  76  81 S5        29.89R
DYERSBURG      FAIR      80  75  84 CALM      29.88R
SOMERVILLE     CLEAR     82  75  78 S5        29.89R
COVINGTON      PTCLDY    82  75  78 VRB3      29.88R
BOLIVAR        CLEAR     81  73  78 S6        29.90R
PARIS          CLEAR     77  73  88 SE3       29.90S
HUNTINGDON     CLEAR     81  73  78 CALM      29.88S
LEXINGTON      CLEAR     81  75  83 CALM      29.89S
SELMER         CLEAR     81  73  78 S6        29.91R
SAVANNAH       CLEAR     81  75  83 S7        29.91R
$$

TNZ008-025-027-028-033-062-065-066-200200-
NORTH MIDDLE TENNESSEE

CITY           SKY/WX    TMP DP  RH WIND       PRES   REMARKS
NASHVILLE      MOCLDY    82  70  66 S3        29.92S
DICKSON        CLEAR     75  73  94 CALM      29.92S
PORTLAND       MOCLDY    79  73  83 CALM      29.93S
CLARKSVILLE    FAIR      79  68  69 CALM      29.91R
LEBANON        PTCLDY    81  73  78 S3        29.91R
SMYRNA         CLOUDY    80  73  79 CALM      29.93S
MURFREESBORO   PTCLDY    81  72  74 S6        29.92R
COOKEVILLE     PTCLDY    75  73  94 CALM      29.95S
LIVINGSTON     CLEAR     73  72  94 CALM      29.97R
CROSSVILLE     FAIR      73  71  93 CALM      30.02R
ROCKWOOD       CLOUDY    73  72  94 SW5       30.00R
$$

TNZ061-075-076-078-094-096-097-200200-
SOUTH MIDDLE TENNESSEE

CITY           SKY/WX    TMP DP  RH WIND       PRES   REMARKS
FAYETTEVILLE   MOCLDY    81  73  78 S5        29.94S
TULLAHOMA      MOCLDY    77  72  83 SE3       29.95S
WINCHESTER     PTCLDY    77  72  83 S5        29.95S
MCMINNVILLE    CLOUDY    79  73  83 CALM      29.95S
COLUMBIA       MOCLDY    81  77  89 VRB5      29.91R
SHELBYVILLE    CLEAR     75  72  88 SE3       29.93S
$$

TNZ017-018-042-046-047-200200-
NORTHEAST TENNESSEE

CITY           SKY/WX    TMP DP  RH WIND       PRES   REMARKS
TRI CITIES     FAIR      74  72  93 NW3       29.99R
ELIZABETHTON     N/A     73  72  94 CALM      30.00R
GREENEVILLE    MOCLDY    73  70  88 CALM      30.00R
$$

TNZ012-013-036-069-073-074-200200-
CENTRAL EAST TENNESSEE

CITY           SKY/WX    TMP DP  RH WIND       PRES   REMARKS
KNOXVILLE      MOCLDY    78  73  84 SW6       29.96R
OAK RIDGE      MOCLDY    80  74  81 CALM      29.97R
DOWNTOWN KNOXV PTCLDY    75  73  94 CALM      29.96R
GATLINBURG     CLEAR     79  73  83 CALM      29.97R
MORRISTOWN     CLOUDY    77  72  83 MISG      29.98R
JACKSBORO      MOCLDY    75  73  94 CALM      30.00R
$$

TNZ083-085-099-200200-
SOUTHEAST TENNESSEE

CITY           SKY/WX    TMP DP  RH WIND       PRES   REMARKS
CHATTANOOGA    MOCLDY    80  72  76 S3        29.96R
DAYTON         MOCLDY    77  77 100 CALM      29.95R
$$

SKY/WX REPORTED AS FAIR MEANS FEW OR NO CLOUDS BELOW
12 THOUSAND FEET.